Preview of NWS' New Version of Forecast
This preview is not operational and should not be used for support decisions.

Regional Weather Roundup (RWR)

Issued by National Weather Service (NWS)

                            
000
ASUS43 KLSX 201607
RWRMO 

WEATHER SUMMARY FOR MISSOURI
NATIONAL WEATHER SERVICE SPRINGFIELD MO
1100 AM CDT TUE AUG 20 2019

NOTE: "FAIR" INDICATES FEW OR NO CLOUDS BELOW 12,000 FEET WITH NO
       SIGNIFICANT WEATHER AND/OR OBSTRUCTIONS TO VISIBILITY.
       CURRENT SKY AND/OR WEATHER CONDITIONS ARE NOT AVAILABLE FOR
       CHILLICOTHE AND FARMINGTON.

MOZ001>031-035>038-043-044-053-054-201700-
...NORTHERN AND WESTERN MISSOURI...
  
CITY           SKY/WX    TMP DP  RH WIND       PRES   REMARKS
KANSAS CTY INT PTSUNNY   85  74  69 N6        30.00R HX  92           
KANSAS C DTWN  FAIR      87  72  60 SW9       29.96R HX  93           
LEE'S SUMMIT   FAIR      87  73  62 MISG      29.99R HX  94           
ST JOSEPH      FAIR      83  74  74 NE6       30.02R                  
CHILLICOTHE      N/A     78  72  81 NE7       30.05R                  
KIRKSVILLE     TSTM      70  69  97 CALM      30.05R FOG              
     
$$
MOZ066>068-077>081-088>096-101>105-201700-
...SOUTHWEST MISSOURI...
  
CITY           SKY/WX    TMP DP  RH WIND       PRES   REMARKS
SPRINGFIELD    FAIR      90  75  61 SW14      30.05F HX 100           
JOPLIN         FAIR      88  75  65 SW10      30.04F HX  97           
BRANSON        MOSUNNY   91  73  55 SW5       30.10S HX 100           
               
$$
MOZ032>034-039>042-045>050-055>058-069>072-201700-
...CENTRAL MISSOURI...  
  
CITY           SKY/WX    TMP DP  RH WIND       PRES   REMARKS
COLUMBIA       FAIR      87  74  64 SW5       30.04R HX  95           
ROLLA          FAIR      88  75  65 SW9       30.07R HX  97           
SEDALIA        FAIR      85  75  72 SW10      30.02R HX  93           
WHITEMAN AFB   PTSUNNY   88  76  68 SW14      29.96R HX  99           
WARRENSBURG    FAIR      86  73  66 SW9       29.98S HX  93           
OSAGE BEACH    FAIR      90  77  65 VRB6      30.03S HX 103           
               
$$
MOZ051-052-059>065-201700-
...EAST CENTRAL MISSOURI...
  
CITY           SKY/WX    TMP DP  RH WIND       PRES   REMARKS
ST LOUIS INTL  CLOUDY    89  74  60 VRB3      30.05R HX  98           
SPIRIT OF STL  CLOUDY    88  77  69 W5        30.04R HX 100           
ST CHARLES       N/A    N/A N/A N/A MISG      30.04R                  
                   
$$
MOZ072>076-082>087-097>100-106>115-201700-
...SOUTH CENTRAL AND SOUTHEAST MISSOURI...
  
CITY           SKY/WX    TMP DP  RH WIND       PRES   REMARKS
CAPE GIRARDEAU FAIR      90  77  65 SW8       30.05F HX 103           
FARMINGTON     FAIR      91  78  65 S7        30.07S HX 106           
POPLAR BLUFF   FAIR      90  78  68 MISG      30.06F HX 104           
WEST PLAINS    FAIR      89  76  65 S6        30.10F HX 100           
                                       
$$